Regional Weather Roundup
Issued by NWS

Home | Current Version | Previous Version | Text Only | Print | Product List | Glossary Off
Versions: 1 2 3 4 5 6 7 8 9 10 11 12 13 14 15 16 17 18 19 20 21 22 23 24 25 26 27 28 29 30 31 32 33 34 35 36 37 38 39 40 41 42 43 44 45 46 47 48 49 50

000
ASUS43 KBIS 031310
RWRND

NORTH DAKOTA REGIONAL WEATHER ROUNDUP
NATIONAL WEATHER SERVICE BISMARCK ND
800 AM CDT TUE MAY 03 2016

NOTE: "FAIR" INDICATES FEW OR NO CLOUDS BELOW 12,000 FEET WITH NO
SIGNIFICANT WEATHER AND/OR OBSTRUCTIONS TO VISIBILITY.


NDZ001>003-009>011-017-031400-
NORTHWEST NORTH DAKOTA

CITY           SKY/WX    TMP DP  RH WIND       PRES   REMARKS
WILLISTON      FAIR      46  38  73 CALM      30.05R
MINOT          FAIR      59  31  34 W15       29.97R
$$

NDZ018>021-031>035-040>046-031400-
SOUTHWEST NORTH DAKOTA

CITY           SKY/WX    TMP DP  RH WIND       PRES   REMARKS
BISMARCK       FAIR      47  40  76 W7        30.01S
DICKINSON      FAIR      45  37  73 W7        30.03R
GARRISON         N/A     47  36  65 CALM      29.99S
HETTINGER ARPT FAIR      42  36  79 W3        30.07R
$$

NDZ004>008-012>016-024-026-027-054-031400-
NORTHEAST NORTH DAKOTA

CITY           SKY/WX    TMP DP  RH WIND       PRES   REMARKS
GRAND FORKS    PTSUNNY   57  38  48 W15       29.84F
DEVILS LAKE    FAIR      52  42  69 NW13      29.92S
$$

NDZ022-023-025-028>030-036>039-047>053-031400-
SOUTHEAST NORTH DAKOTA

CITY           SKY/WX    TMP DP  RH WIND       PRES   REMARKS
FARGO          FAIR      50  40  68 SW12      29.91S
JAMESTOWN      FAIR      50  44  80 W10       29.93F
$$





USA.gov is the U.S. government's official web portal to all federal, state and local government web resources and services.